Regional Weather Roundup
Issued by NWS

Home | Current Version | Previous Version | Graphics & Text | Print | Product List | Glossary On
Versions: 1 2 3 4 5 6 7 8 9 10 11 12 13 14 15 16 17 18 19 20 21 22 23 24 25 26 27 28 29 30 31 32 33 34 35 36 37 38 39 40 41 42 43 44 45 46 47 48 49 50
000
ASUS43 KOAX 301810
RWRNE

WEATHER ROUNDUP FOR NEBRASKA
NATIONAL WEATHER SERVICE OMAHA NE
100 PM CDT TUE AUG 30 2016

NOTES: SATELLITE DATA IS BEING USED TO AUGMENT CLOUD COVER ABOVE
       12000 FEET.
       "FAIR" INDICATES FEW OR NO CLOUDS BELOW 12,000 FEET WITH NO
       SIGNIFICANT WEATHER AND/OR OBSTRUCTIONS TO VISIBILITY.

  * THESE STATIONS DO NOT REPORT WEATHER SUCH AS RAIN...SNOW OR FOG.

NEZ001>004-019>022-054>056-301900-
NEBRASKA PANHANDLE

CITY           SKY/WX    TMP DP  RH WIND       PRES   REMARKS
SCOTTSBLUFF    MOSUNNY   80  60  50 VRB6      30.28F
6HR MIN TEMP:  54; 6HR MAX TEMP:  80;

ALLIANCE       MOSUNNY   79  60  52 S8        30.28F
6HR MIN TEMP:  51; 6HR MAX TEMP:  80;

CHADRON        SUNNY     81  59  47 VRB5      30.24F
6HR MIN TEMP:  52; 6HR MAX TEMP:  81;

KIMBALL        SUNNY     76  57  50 E8        30.33F
SIDNEY         MOSUNNY   79  58  48 SE7       30.31F
6HR MIN TEMP:  56; 6HR MAX TEMP:  79;

$$

NEZ057>060-069>072-079>082-301900-
SOUTHWEST NEBRASKA

CITY           SKY/WX    TMP DP  RH WIND       PRES   REMARKS
NORTH PLATTE   PTSUNNY   81  64  56 VRB6      30.25F
6HR MIN TEMP:  65; 6HR MAX TEMP:  81;

IMPERIAL       CLOUDY    72  61  68 E8        30.27F
6HR MIN TEMP:  59; 6HR MAX TEMP:  72;

LEXINGTON      CLOUDY    74  66  77 CALM      30.25S
MCCOOK         CLOUDY    74  65  73 VRB3      30.25F
6HR MIN TEMP:  65; 6HR MAX TEMP:  74;

OGALLALA         N/A     82  56  40 SE5       30.26F
$$

NEZ005>010-023>029-035>040-094-301900-
NORTH CENTRAL NEBRASKA

CITY           SKY/WX    TMP DP  RH WIND       PRES   REMARKS
VALENTINE      SUNNY     85  61  44 E10       30.22F
6HR MIN TEMP:  61; 6HR MAX TEMP:  85;

AINSWORTH      MOSUNNY   82  66  58 E8        30.23F
BROKEN BOW     CLOUDY    76  67  73 S5        30.24F
6HR MIN TEMP:  67; 6HR MAX TEMP:  76; 6HR PCP:  0.17;

O`NEILL        MOSUNNY   80  65  60 SE6       30.23F
ORD            CLOUDY    76  65  68 CALM      30.23S
6HR MIN TEMP:  68; 6HR MAX TEMP:  76;

THEDFORD       SUNNY     83  61  47 S7        30.25F
$$

NEZ041-046>049-061>064-073>077-083>087-301900-
SOUTH CENTRAL NEBRASKA

CITY           SKY/WX    TMP DP  RH WIND       PRES   REMARKS
GRAND ISLAND   LGT RAIN  76  66  71 VRB3      30.23F
6HR MIN TEMP:  66; 6HR MAX TEMP:  76; 6HR PCP: TRACE;

AURORA         CLOUDY    77  70  80 E3        30.23S
HASTINGS       CLOUDY    77  65  66 CALM      30.23F
6HR MIN TEMP:  68; 6HR MAX TEMP:  77; 6HR PCP:  0.01;

HEBRON         PTSUNNY   78  69  74 NE6       30.20S
HOLDREGE       CLOUDY    73  65  76 CALM      30.25S
KEARNEY *      CLOUDY    73  64  73 CALM      30.24R
YORK           LGT RAIN  73  70  88 NE8       30.23S
$$

NEZ011>018-030>034-042>045-301900-
NORTHEAST NEBRASKA

CITY           SKY/WX    TMP DP  RH WIND       PRES   REMARKS
NORFOLK        CLOUDY    75  67  76 SE6       30.22F
6HR MIN TEMP:  67; 6HR MAX TEMP:  76; 6HR PCP: TRACE;

ALBION         LGT RAIN  73  67  80 SE6       30.24S
BLAIR          CLOUDY    75  69  79 SE3       30.19F
FREMONT        MOSUNNY   74  69  86 SE3       30.20F
TEKAMAH        CLOUDY    75  69  81 S6        30.19F
6HR MIN TEMP:  65; 6HR MAX TEMP:  75; 6HR PCP:  0.02;

WAYNE          CLOUDY    77  70  79 S7        30.22F
$$

NEZ050>053-065>068-078-088>093-301900-
SOUTHEAST NEBRASKA

CITY           SKY/WX    TMP DP  RH WIND       PRES   REMARKS
LINCOLN        CLOUDY    78  68  71 NE7       30.22F
6HR MIN TEMP:  69; 6HR MAX TEMP:  77; 6HR PCP:  0.04;

OMAHA EPPLEY   CLOUDY    76  67  73 SE7       30.18F
6HR MIN TEMP:  70; 6HR MAX TEMP:  76; 6HR PCP: TRACE;

BEATRICE       CLOUDY    77  69  75 NE6       30.20F
FALLS CITY     PTSUNNY   77  71  82 E7        30.18F
6HR MIN TEMP:  69; 6HR MAX TEMP:  77; 6HR PCP:  0.71;

NEBRASKA CITY  CLOUDY    76  70  81 NE5       30.20F
PLATTSMOUTH    CLOUDY    76  69  76 CALM      30.20F
$$

NEZ044-045-051>053-067-301900-
OMAHA AREA

CITY           SKY/WX    TMP DP  RH WIND       PRES   REMARKS
OMAHA EPPLEY   CLOUDY    76  67  73 SE7       30.18F
6HR MIN TEMP:  70; 6HR MAX TEMP:  76; 6HR PCP: TRACE;

BLAIR          CLOUDY    75  69  79 SE3       30.19F
FREMONT        MOSUNNY   74  69  86 SE3       30.20F
MILLARD        LGT RAIN N/A N/A N/A S5        30.18F
OFFUTT AFB     CLOUDY    75  69  81 VRB3      30.18F
PLATTSMOUTH    CLOUDY    76  69  76 CALM      30.20F
WAHOO          DRIZZLE   74  69  86 S7        30.19F
$$




USA.gov is the U.S. government's official web portal to all federal, state and local government web resources and services.